Regional Weather Roundup
Issued by NWS

Home | Current Version | Previous Version | Graphics & Text | Print | Product List | Glossary On
Versions: 1 2 3 4 5 6 7 8 9 10 11 12 13 14 15 16 17 18 19 20 21 22 23 24 25 26 27
000
ASUS45 KBOU 201107
RWRCO

WEATHER ROUNDUP FOR COLORADO
NATIONAL WEATHER SERVICE DENVER/BOULDER CO
500 AM MDT THU JUL 20 2017

NOTE: "FAIR" INDICATES FEW OR NO CLOUDS BELOW 12000 FEET WITH NO
SIGNIFICANT WEATHER AND/OR OBSTRUCTIONS TO VISIBILITY.

COZ001>005-013-030-031-201200-
...NORTHWEST COLORADO...

CITY           SKY/WX    TMP DP  RH WIND       PRES   REMARKS
CRAIG          FAIR      61  53  75 CALM      30.27S
HAYDEN         FAIR      59  48  67 E10       30.29F
MEEKER         FAIR      59  55  87 NE9       30.29R
RABBIT EARS PA FAIR      50  45  81 SE3       30.59S
STEAMBOAT SPGS FAIR      55  51  86 NW5       30.32F
WALDEN         FAIR      52  46  82 SE3       30.44S
$$

COZ006>008-011-201200-
...WEST CENTRAL VALLEYS...

CITY           SKY/WX    TMP DP  RH WIND       PRES   REMARKS
GRAND JUNCTION FAIR      69  60  73 E9        30.16S
MONTROSE       FAIR      63  57  81 SE7       30.26F
EAGLE          FAIR      60  57  89 S5        30.37R
RIFLE          FAIR      64  60  87 SW7       30.24F
DELTA          FAIR      69  59  69 CALM      30.23R
NUCLA          FAIR      64  50  59 E8        30.31S
$$

COZ017>023-064>068-201200-
...SOUTHWEST COLORADO...

CITY           SKY/WX    TMP DP  RH WIND       PRES   REMARKS
DURANGO        FAIR      61  49  64 NE5       30.32S
CORTEZ         FAIR      61  56  83 E3        30.28S
PAGOSA SPRINGS FAIR      57  51  82 CALM      30.44R
TELLURIDE      FAIR      55  47  73 SE6       30.52F
WOLF CREEK PAS FAIR      46  41  81 SW15G21   30.77F
$$

COZ009-010-012-014-032>034-037-058>063-201200-
...CENTRAL COLORADO...

CITY           SKY/WX    TMP DP  RH WIND       PRES   REMARKS
ASPEN          FAIR      56  50  80 SE9       30.41F
BUENA VISTA    FAIR      55  47  75 CALM      30.45S
COPPER MTN     FAIR      54  41  62 W8        30.74R
BERTHOUD PASS  FAIR      45  32  61 W16       30.75F
COTTONWOOD PAS FAIR      57  43  58 SW3       30.57F
GUNNISON       FAIR      54  50  86 N6        30.44R
KREMMLING      FAIR      59  54  82 CALM      30.41F
LEADVILLE      FAIR      47  43  86 E5        30.57F
MONARCH PASS   FAIR      50  41  71 W13       30.83R
SALIDA         FAIR      58  47  69 W6        30.50R
SUNLIGHT       FAIR      48  41  76 SE6       30.64F
WILKERSON PASS FAIR      52  39  62 CALM      30.71R
$$

COZ069>075-201200-
...SAN LUIS VALLEY/SANGRE DE CRISTO MOUNTAINS...

CITY           SKY/WX    TMP DP  RH WIND       PRES   REMARKS
ALAMOSA        FAIR      54  50  86 E8        30.40R
DEL NORTE      FAIR      60  47  60 W6        30.45R
LA VETA PASS   NOT AVBL
SAGUACHE         N/A    N/A N/A N/A MISG        N/A
$$

COZ035-036-038>040-201200-
...NORTHERN COLORADO FRONT RANGE...

CITY           SKY/WX    TMP DP  RH WIND       PRES   REMARKS
DENVER INTL AP MOCLDY    66  55  67 W7        30.24S
DMNS CITY PARK   N/A     65  56  70 E9        30.25S
AURORA         MOCLDY    64  56  74 W5        30.27S
FRONT RANGE AP FAIR      64  55  72 S5        30.26S
ERIE MUNI ARPT FAIR      61  52  71 W3        30.23S
BOULDER MUN AP FAIR      68  52  56 CALM      30.24S
CENTENNIAL     FAIR      67  54  63 CALM      30.28S
BROOMFIELD     FAIR      66  50  55 CALM      30.28R
FORT COLLINS   FAIR      70  56  61 CALM      30.21F
LONGMONT       FAIR      63  54  70 CALM      30.24S
$$

COZ041-046-047-076>085-087-088-201200-
...PIKES PEAK/PALMER DIVIDE AND SOUTHERN FOOTHILLS...

CITY           SKY/WX    TMP DP  RH WIND       PRES   REMARKS
COLO. SPRINGS  FAIR      69  54  58 NW13      30.29R
A. F. ACADEMY  FAIR      62  51  68 N12       30.31R
SCHRIEVER AFB  FAIR      66  52  61 N18G25    30.27R
CHEYENNE MTN   NOT AVBL
ELLICOTT       FAIR     N/A N/A N/A N16       30.25R
FALCON           N/A     64  51  64 N16       30.33R
FORT CARSON    FAIR      69  53  55 N17G24    30.23R
LIMON          FAIR      64  58  80 NW13      30.20S
MONUMENT HILL  FAIR      55  50  82 NW8       30.38S
CANON CITY     PTCLDY    70  55  60 SW7       30.22R
WALSENBURG     NOT AVBL
TRINIDAD       FAIR      69  47  45 NW10      30.22R
$$

COZ042>045-048>051-090-091-201200-
...NORTHEAST COLORADO...

CITY           SKY/WX    TMP DP  RH WIND       PRES   REMARKS
GREELEY ARPT   FAIR      67  59  75 CALM      30.20R
AKRON          FAIR      66  59  78 N12       30.15R
BURLINGTON     FAIR      65  57  75 SW9       30.07S
WRAY           NOT AVBL
YUMA           FAIR      70  55  60 N13G20    30.09R
STERLING       FAIR      68  63  83 N7        30.12R
HOLYOKE        MOCLDY    72  63  73 NE21      30.06F
FORT MORGAN    FAIR      67  57  70 N9        30.17S
$$

COZ086-089-092>099-201200-
...SOUTHEAST COLORADO...

CITY           SKY/WX    TMP DP  RH WIND       PRES   REMARKS
PUEBLO         FAIR      76  51  41 N18G25    30.14R
LA JUNTA       FAIR      73  54  51 NW12      30.10R
LAMAR          FAIR      70  55  59 S12       30.02S
SPRINGFIELD      N/A     69  58  67 SW10      30.13R
$$




USA.gov is the U.S. government's official web portal to all federal, state and local government web resources and services.